GSAT0205 (GALILEO 9) (40889 NORAD) Tracking and Keplerian Element Data

This shows tracking and keplerian element data for the satellite.

Feedback or suggestion? Click here.




ElementValue
Catalog40889
NameGSAT0205 (GALILEO 9)
Epoch Orbit2302
Epoch Day144.8523971
Epoch Year2019
RAAN292.8087
Inclination56.4649
Eccentricity0.0003229
Argument of Perigee39.8951
Mean Anonmoly320.103
Mean Motion1.70475403
Decay Rate-4.2E-07
L11 40889U 15045A 19144.85239710 -.00000042 00000-0 00000-0 0 9995
L22 40889 56.4649 292.8087 0003229 39.8951 320.1030 1.70475403 23029

Live tracking and technical data element details for GSAT0205 (GALILEO 9) (NORAD 40889). GSAT0205 (GALILEO 9) can be tracked NOW for your location showing map with azimuth and elevation plus other details from your city location.

Track the satellite on the map from your city or location and see movement details for azimuth, elevation, latitude, longitude, range, height, and movement on the map or in text.







IsCatalogInMostPopularTable: catalog: 40889, numindb: 221
Update: records affected: 1



GetName: 40889 GSAT0205 (GALILEO 9)

Hit Count: updated at: Sun, 26 May 2019 18:58:09 GMT